Duchifat 3
1 44854U 19089C   25110.84483938  .00050803  00000-0  11619-2 0  9994
2 44854  36.9459 310.3946 0000799 268.2413  91.8251 15.41817437295250
TO-108
1 44881U 19093C   25110.85074420  .00001716  00000-0  20475-3 0  9992
2 44881  97.7939 187.5400 0014647  40.0376 320.1916 14.85470286288698
FloripaSat 1
1 44885U 19093G   25110.85692962  .00008964  00000-0  76687-3 0  9991
2 44885  97.8149 198.3807 0010491  22.9279 337.2409 14.97796332289302
RS-44
1 44909U 19096E   25109.89376780  .00000038  00000-0  10394-3 0  9997
2 44909  82.5184 260.9545 0218205  54.3007 307.8185 12.79740252248256
UPMSat 2
1 46276U 20061E   25110.57019169  .00071180  00000-0  81649-3 0  9999
2 46276  97.2481 183.5119 0001605 140.3258 219.8118 15.61852731257644
SALSAT
1 46495U 20068K   25110.85925412  .00011059  00000-0  48863-3 0  9997
2 46495  97.8581  86.6316 0010904 345.9130  14.1799 15.21857934250965
CubeSX-Sirius-HSE
1 47951U 21022V   25110.83951070  .00198786  00000-0  14610-2 0  9998
2 47951  97.4195  21.1956 0011108 112.3175 247.9267 15.72430326225973
CubeSX-HSE
1 47952U 21022W   25110.86007658  .00200021  00000-0  14361-2 0  9995
2 47952  97.4213  21.4570 0010741 108.8207 251.4223 15.72985282225998
GRBAlpha
1 47959U 21022AD  25110.83435306  .00187886  00000-0  13867-2 0  9997
2 47959  97.4194  21.5482 0010737 111.7668 248.4738 15.72366995224816
TUBIN
1 48900U 21059X   25110.82828320  .00051495  00000-0  74910-3 0  9998
2 48900  97.6734 276.1982 0002940  75.9553 284.2027 15.55602463212291
LEDSAT
1 49069U 21073D   25110.63963477  .00074089  00000-0  11442-2 0  9997
2 49069  97.3915 190.3399 0011153 250.6475 109.3573 15.53799659203662
CUTE
1 49263U 21088D   25110.64890610  .00021967  00000-0  46746-3 0  9991
2 49263  97.4524 185.5234 0009378  70.4369 289.7891 15.44935540196719
TeikyoSat 4
1 49396U 21102B   25110.63650870  .00003274  00000-0  22016-3 0  9991
2 49396  97.4162 150.8609 0010992 310.2055  49.8210 15.07379768189025
Z-Sat
1 49399U 21102E   25110.85710725  .00006324  00000-0  35181-3 0  9990
2 49399  97.3859 153.8707 0016472 276.4860  83.4496 15.13889813189459
KOSEN 1
1 49402U 21102H   25110.70196459  .00009781  00000-0  46302-3 0  9998
2 49402  97.3763 156.7688 0014522 250.3427 109.6241 15.19454991189711
HO-113
1 50466U 21131B   25110.82854044  .00000970  00000-0  31739-3 0  9995
2 50466  98.5082 200.4328 0002931 287.7260  72.3609 14.40735694174283
IRIS-A
1 51044U 22002BN  25110.63816869  .00210665  00000-0  12305-2 0  9999
2 51044  97.3279 188.4130 0002498 252.7481 107.3512 15.77789819181966
Foresail-1
1 52766U 22057AL  25110.34905606  .00186366  00000-0  12656-2 0  9996
2 52766  97.6039 256.8897 0002004 164.1143 196.0184 15.74396791161945
SNUGLITE 2
1 52899U 22065F   25110.36267122  .00002387  00000-0  47427-3 0  9993
2 52899  98.1606 252.8505 0006345 269.0077  91.0398 14.63048190149146
IO-117
1 53106U 22080B   25051.21822557 -.00000003  00000-0  00000+0 0  9995
2 53106  70.1434 106.3440 0008542  48.0089 312.1297  6.42557744 61200
UmKA 1 (RS40S)
1 57172U 23091G   25110.87405261  .00008313  00000-0  45181-3 0  9996
2 57172  97.5631 166.5252 0015966 142.1579 218.0779 15.14642241 99954
CubeBel-2 (EU11S)
1 57175U 23091K   25110.89450308  .00014200  00000-0  69666-3 0  9999
2 57175  97.5630 167.4070 0013809 150.4949 209.7066 15.18132842100012
VERONIKA
1 58261U 23174F   25110.81070937  .00100231  00000-0  13298-2 0  9995
2 58261  97.4149 194.4755 0007906 217.4502 142.6203 15.57873208 80907
ENSO
1 58470U 23185J   25110.83447484  .00051507  00000-0  91182-3 0  9996
2 58470  97.3762 184.5567 0007450 246.1447 113.9024 15.50106039 77318
EIRSAT-1
1 58472U 23185L   25110.88606767  .00085182  00000-0  11495-2 0  9998
2 58472  97.3738 185.8123 0006974 241.8621 118.1930 15.57479614 77403
SONATE-2
1 59112U 24043Q   25110.36040295  .00027052  00000-0  82781-3 0  9994
2 59112  97.5056 240.6223 0010409 291.9526  68.0609 15.33757479 62636
MO-122
1 60209U 24125G   25110.12376161  .00023443  00000-0  70930-3 0  9995
2 60209  97.2863 322.3571 0018258 321.6620  38.3324 15.34030527 44215
GRBBeta
1 60237U 24128C   25110.48628580  .00006889  00000-0  52449-3 0  9993
2 60237  61.9916 254.1510 0047310  46.5414 313.9596 15.02104726 42672
Curium One
1 60242U 24128H   25110.46669624  .00013467  00000-0  95406-3 0  9991
2 60242  61.9819 253.1980 0047093  42.0343 318.4346 15.04210792 42698
ROBUSTA-3A
1 60243U 24128J   25110.78716291  .00011378  00000-0  81908-3 0  9991
2 60243  61.9887 252.7456 0045605  39.8992 320.5436 15.03789119 42730
CatSat
1 60246U 24125J   25110.52216814  .00013024  00000-0  45016-3 0  9999
2 60246  97.2653 322.5068 0041822 272.4641  87.1812 15.29191691 42334
HYPERVIEW-1G (RS66S)
1 61772U 24199AP  25110.85369987  .00026563  00000-0  82762-3 0  9992
2 61772  97.3613 339.8721 0014489  19.1730 341.0055 15.33135642 69336
AO-123
1 61781U 24199AY  25110.87542059  .00008990  00000-0  33505-3 0  9992
2 61781  97.3623 339.2554 0016566  20.5892 339.6011 15.27545892 69293
ZIMSAT 2
1 61783U 24199BA  25110.85345087  .00043783  00000-0  12148-2 0  9992
2 61783  97.3599 340.1639 0014692  17.7422 342.4333 15.36679326 72504
HADES-R (SO-124)
1 62690U 25009CK  25109.17796441  .00048212  00000-0  19251-2 0  9992
2 62690  97.4101 190.3277 0003169 231.9395 128.1557 15.24981662 14308
HYDRA-T
1 62692U 25009CM  25109.17061723  .00048253  00000-0  19165-2 0  9991
2 62692  97.4102 190.3376 0003097 226.5142 133.5838 15.25160511 14306
JINJUSat 1B
1 63210U 25052A   25110.69661520  .00017228  00000-0  81854-3 0  9999
2 63210  97.4473   5.4823 0006223 120.9040 239.2808 15.19269188  5679
NUSHSAT 1
1 63211U 25052B   25109.90643230  .00018916  00000-0  89711-3 0  9995
2 63211  97.4462   4.6984 0006081 126.9434 233.2358 15.19311744  5559
TEVEL2-4
1 63213U 25052D   25110.24045624  .00020870  00000-0  99551-3 0  9994
2 63213  97.4380   4.9811 0004742 134.5735 225.5887 15.19097391  5609
TEVEL2-5
1 63214U 25052E   25110.24057351  .00020581  00000-0  98207-3 0  9991
2 63214  97.4379   4.9803 0004812 135.0040 225.1585 15.19087280  5609
TEVEL2-6
1 63215U 25052F   25109.51678854  .00018699  00000-0  89465-3 0  9990
2 63215  97.4378   4.2667 0004707 137.6619 222.4980 15.19016305  5499
TEVEL2-1
1 63217U 25052H   25110.17981911  .00020468  00000-0  98327-3 0  9991
2 63217  97.4339   4.8972 0004509 147.1193 213.0323 15.18855316  5596
TEVEL2-2
1 63218U 25052J   25110.24590015  .00020558  00000-0  98769-3 0  9991
2 63218  97.4344   4.9634 0004657 148.8554 211.2957 15.18851689  5606
TEVEL2-3
1 63219U 25052K   25109.65296421  .00022170  00000-0  10653-2 0  9996
2 63219  97.4354   4.3800 0004507 148.3428 211.8078 15.18830559  5519
TEVEL2-8
1 63237U 25052AD  25110.20637765  .00018992  00000-0  94302-3 0  9990
2 63237  97.4406   4.8911 0008172 175.3651 184.7660 15.17699934  5597
TEVEL2-9
1 63238U 25052AE  25110.20705439  .00018825  00000-0  93573-3 0  9999
2 63238  97.4420   4.8918 0008421 175.7211 184.4096 15.17661141  5593
TEVEL2-7
1 63239U 25052AF  25110.20783811  .00018753  00000-0  93316-3 0  9995
2 63239  97.4416   4.8901 0008395 176.1020 184.0280 15.17624520  5595
HYDRA-W
1 63490U 25052BL  25110.90297797  .00032189  00000-0  14827-2 0  9992
2 63490  97.4373   5.6212 0012690 173.7244 186.4152 15.20152471  5706
HADES-ICM
1 63492U 25052BN  25110.51127893  .00036892  00000-0  17130-2 0  9995
2 63492  97.4377   5.2286 0012687 179.5832 180.5416 15.19845096  5643
